Regional Weather Roundup
Issued by NWS

Home | Current Version | Previous Version | Graphics & Text | Print | Product List | Glossary On
Versions: 1 2 3 4 5 6 7 8 9 10 11 12 13 14 15 16 17 18 19 20 21 22 23 24 25 26 27 28 29 30 31 32 33 34 35 36 37 38 39 40 41 42 43 44 45 46 47 48 49 50
000
ASUS45 KABQ 101001
RWRNM
NEW MEXICO REGIONAL WEATHER ROUNDUP
NATIONAL WEATHER SERVICE ALBUQUERQUE NM
300 AM MST SAT DEC 10 2016

NOTE: "FAIR" MEANS FEW OR NO CLOUDS BELOW 12,000 FEET AGL WITH NO
       SIGNIFICANT WEATHER OR OBSTRUCTIONS TO VISION.

      THIS PRODUCT IS RELEASED AS TWO VERSIONS.  ONE VERSION NEAR
      THE TOP OF THE HOUR CONTAINING PRELIMINARY DATA FROM ALBUQUERQUE
      AND OTHER STATIONS.  A FINAL VERSION WITH ADDITIONAL DATA IS
      ISSUED ABOUT 10 MINUTES AFTER THE HOUR.

NMZ501-503-504-510>518-101100-
NORTHWEST PLATEAU/NORTHCENTRAL MOUNTAINS

CITY           SKY/WX    TMP DP  RH WIND       PRES   REMARKS
FARMINGTON     FAIR      26  21  81 E5        30.25R WCI  20
LOS ALAMOS     FAIR      35  23  62 CALM      30.28S
SANTA FE       FAIR      20  18  92 N6        30.26S WCI  12
TAOS           FAIR      21  12  68 CALM      30.27S
ANGEL FIRE     FAIR      32  23  69 SE8       30.24F WCI  25

$$
NMZ402-403-502-505>509-101100-
WESTCENTRAL MOUNTAINS/SOUTHWEST MOUNTAINS

CITY           SKY/WX    TMP DP  RH WIND       PRES   REMARKS
GALLUP         FAIR      20  18  92 CALM      30.27F
GRANTS         FAIR      21  19  91 NW6       30.30S WCI  13
SILVER CITY    FAIR      28  26  93 N7        30.28S WCI  21

$$
NMZ407-409-411-412-101100-
SOUTHERN DESERTS

CITY           SKY/WX    TMP DP  RH WIND       PRES   REMARKS
DEMING         FAIR      30  27  88 NW3       30.28F
LAS CRUCES     FAIR      29  26  88 N3        30.28F
HOLLOMAN AFB   FAIR      24  17  74 N7        30.33F WCI  16
T OR C         FAIR      30  24  78 CALM      30.27F

$$
NMZ519>523-101100-
CENTRAL VALLEYS/CENTRAL HIGHLANDS

CITY           SKY/WX    TMP DP  RH WIND       PRES   REMARKS
ALBUQUERQUE    FAIR      33  26  75 N3        30.29R
DOUBLE EAGLE   FAIR      24  21  88 W5        30.29R WCI  18
MORIARTY ARPT  FAIR      12  10  92 N5        30.29S WCI   4
CLINES CORNERS FAIR      24  20  84 NW10      30.26S WCI  14
BELEN          FAIR      26  22  85 CALM      30.29S
SOCORRO        FAIR      29  26  86 S6        30.28F WCI  23

$$
NMZ524>526-539-540-101100-
SOUTHCENTRAL MOUNTAINS

CITY           SKY/WX    TMP DP  RH WIND       PRES   REMARKS
RUIDOSO        FAIR      39  21  48 N3        30.28S

$$
NMZ527>531-101100-
NORTHEAST HIGHLANDS/NORTHEAST PLAINS

CITY           SKY/WX    TMP DP  RH WIND       PRES   REMARKS
LAS VEGAS      FAIR      32  18  56 S12       30.18F WCI  23
RATON          FAIR      20  15  81 N9        30.14S WCI   9
CLAYTON        FAIR      28  24  85 S10       30.08F WCI  19

$$
NMZ532>537-101100-
EASTCENTRAL PLAINS

CITY           SKY/WX    TMP DP  RH WIND       PRES   REMARKS
TUCUMCARI      FAIR      28  24  85 SW9       30.12F WCI  19
CANNON AFB     PTCLDY    26  26 100 CALM      30.18S FOG
CLOVIS AIRPORT FAIR      27  23  86 SW5       30.18F WCI  21

$$
NMZ028-029-538-101100-
SOUTHEAST PLAINS

CITY           SKY/WX    TMP DP  RH WIND       PRES   REMARKS
ROSWELL        CLOUDY    27  24  89 CALM      30.21F
ARTESIA        FOG       30  30 100 CALM      30.24S VSB<1/4
CARLSBAD       NOT AVBL


$$




USA.gov is the U.S. government's official web portal to all federal, state and local government web resources and services.